DELTA 1 R/B, 515

Orbit data source: Space-Track

DELTA 1 R/B, 515 is space debris originally from a launch on Thu, 13 Dec 1962 UTC launched from the Air Force Eastern Test Range (AFETR). Debris objects in space refer to the collection of defunct objects orbiting the Earth. Examples of debris include non-operational satellites, rocket bodies, and fragments generated from explosions, collisions, or faulty payload assembly.

Loading next visibility...
DELTA 1 R/B details
Identifier
515, 1962-068B
Orbit
Active
Last TLE update15 hours ago
Origin
Flag of USGSFC (US)
ManufacturerABL
MissionSpacecraft
Bus & MotorALTAIR, Unknown motor
Mass24 kg wet, 24 kg dry
Launch date (UTC)
1962-12-13 (62 years ago)
Launch vehicleUnknown
Launch site
Air Force Eastern Test Range (AFETR)
Object type
Payload
Rocket body
Debris
Shape & HBRCyl, 1.5 m
Radar Cross Section0.687 m², Medium (>0.1 m² and < 1m²)

Expand to show TLE details & history

TLE from 15 hours ago
0 DELTA 1 R/B
1 00515U 62068B   25014.86330295 -.00000026  00000-0  00000-0 0  9990
2 00515  47.5168 302.4012 2838551   9.2527 355.0770  7.79265948767445
Epoch: 2025-01-14T20:43Z
Definitive object data (Epoch: 2025-01-14T20:43:09.374Z)
Latitude0.00001°
Longitude-122.95175°
Altitude1,340.184 km
Speed8.137 km/s
True Right ascension20h 09m 36s
True Declination0° 00' 00"
Sunlit
Object was in daylight at TLE epoch
Visualization TLE readout
Latitude-38.09118°
Longitude101.96328°
Altitude5,909.96 km
Speed5.275 km/s
Apparent Right ascension10h 23m 51s
Apparent Declination-66° 50' 26"
Sunlit
Object is in daylight
Visualization observer readout
Local Sidereal Time11:55:22
Azimuth189.261° SSW
Elevation-18.182°
Doppler factor1
Orbital elements
Apogee altitude7,420.269 km
Perigee altitude1,318.727 km
Semi-major axis10,747.635 km
Eccentricity0.2838551
Inclination47.5168°
RAAN302.4012°
Arg. of periapsis9.2527°
True anomaly350.81322°
Mean anomaly355.077°
Eccentric anomaly353.13221°
Mean motion1.94793 °/min
BSTARUnknown
Orbital period184.81 mins
Loading maneuver chart data...
Loading historical data...
Loading historical data...
Loading historical data...
Loading historical data...
Loading historical data...
Loading historical data...
Loading historical data...
Other satellites on launch #68 in the year 1962 (1962-12-13 UTC)

DELTA 1 R/B Visibility forecast

Observer location: undefined°, undefined

Span
Click to sort rows by Start time (UTC) header in descending order
Start Az.
Max El. time (UTC)
Max El. Az.
Max El.
End time (UTC)
End Az.
20 mins2025-01-15 21:28:12.598Z212.536° SW2025-01-15 21:35:12.598Z139.502° SSE40.635°2025-01-15 21:48:12.598Z61.002° ENE
36 mins2025-01-16 00:42:12.598Z277.632° WNW2025-01-16 00:52:12.598Z4.779° NNE42.493°2025-01-16 01:18:12.598Z82.465° E
60 mins2025-01-16 03:57:12.598Z298.324° NW2025-01-16 04:14:12.598Z190.227° SSW44.952°2025-01-16 04:57:12.598Z131.657° SE
62 mins2025-01-16 07:14:12.598Z292.519° NW2025-01-16 07:37:12.598Z236.768° WSW31.528°2025-01-16 08:16:12.598Z183.17° SSW
|